Regional Weather Roundup
Issued by NWS

Home | Current Version | Previous Version | Text Only | Print | Product List | Glossary Off
Versions: 1 2 3 4 5 6 7 8 9 10 11 12 13 14 15 16 17 18 19 20 21 22 23 24 25 26 27 28 29 30 31 32 33 34 35 36 37 38 39 40 41 42 43 44 45 46 47 48 49 50

000
ASUS43 KMPX 281801
RWRMN
WEATHER ROUNDUP FOR MINNESOTA
NATIONAL WEATHER SERVICE TWIN CITIES/CHANHASSEN MN
1200 PM CST SUN DEC 28 2014


NOTE: "FAIR" INDICATES FEW OR NO CLOUDS BELOW 12,000 FEET WITH NO
SIGNIFICANT WEATHER AND/OR OBSTRUCTIONS TO VISIBILITY. N/A MEANS
CURRENT SKY AND/OR WEATHER CONDITIONS ARE NOT AVAILABLE.

MNZ060>063-068>070-281900-
   Twin Cities Metro

CITY           SKY/WX    TMP DP  RH WIND       PRES   REMARKS
TWIN CITIES    PTSUNNY   18  12  77 CALM      30.17F
6HR MIN TEMP:   7; 6HR MAX TEMP:  18;

ST PAUL        CLOUDY    20  13  74 CALM      30.19S
CRYSTAL        CLOUDY    20  13  74 N6        30.16F WCI  12
BLAINE         CLOUDY    21  16  79 N6        30.16S WCI  14
LAKEVILLE      PTSUNNY   18  12  79 CALM      30.16S
EDEN PRAIRIE   CLOUDY    18  13  80 CALM      30.16S
6HR MIN TEMP:   5; 6HR MAX TEMP:  18;

SOUTH ST PAUL  PTSUNNY   20  14  76 CALM      30.17S
LAKE ELMO      CLOUDY    21  16  79 N5        30.17S WCI  15
$$
MNZ001>005-007-008-013>017-022>024-027-028-281900-
   Northwest Minnesota

CITY           SKY/WX    TMP DP  RH WIND       PRES   REMARKS
BEMIDJI        SUNNY      2  -3  77 N3        30.21R
HALLOCK        SUNNY     -6 -13  71 NW6       30.34R WCI -18
ROSEAU         SUNNY     -4 -11  71 W5        30.28S WCI -15
WARROAD        SUNNY     -4 -11  71 W5        30.26S WCI -15
THIEF RVR FALL SUNNY     -2  -8  78 NW7       30.28S WCI -16
CROOKSTON      SUNNY     -6  -9  84 N12       30.34S WCI -24
FOSSTON        SUNNY      3  -6  66 CALM      30.25S
DETROIT LAKES  SUNNY      9   1  72 N7        30.21F WCI  -3
MOORHEAD       SUNNY      3   0  85 N10       30.29S WCI -12
PARK RAPIDS    SUNNY      7  -4  60 VRB3      30.19R
MAHNOMEN       FAIR       0  -5  78 N7        30.24S WCI -13
$$
MNZ006-009>011-018-025>026-281900-
   North Central Minnesota

CITY           SKY/WX    TMP DP  RH WIND       PRES   REMARKS
BAUDETTE       SUNNY     -5 -13  68 NW7       30.24S WCI -19
FLAG ISLAND    SUNNY     -8 -15  71 NW7       30.25S WCI -22
INTL FALLS     SUNNY      0  -8  69 VRB6      30.21S WCI -12
6HR MIN TEMP:  -7; 6HR MAX TEMP:   0;

WASKISH        SUNNY      1  -6  71 CALM      30.23F
BIG FORK       SUNNY      5  -6  61 W3        30.19F
LONGVILLE      SUNNY      7  -2  66 CALM      30.20S
GRAND RAPIDS   SUNNY      1  -6  71 NW6       30.18R WCI -10
CRANE LAKE     SUNNY      1  -9  60 NW5       30.21S WCI  -8
ORR            SUNNY      1  -9  60 NW6       30.15S WCI -10
COOK           SUNNY      3  -6  66 W9        30.17S WCI -11
WALKER         FAIR       3  -4  70 N3        30.20S
$$
MNZ012-019>021-037-281900-
   Northeast Minnesota

CITY           SKY/WX    TMP DP  RH WIND       PRES   REMARKS
DULUTH         SUNNY      8  -4  58 NW9       30.13S WCI  -5
6HR MIN TEMP:   7; 6HR MAX TEMP:  16; 6HR PCP: TRACE;

ELY            SUNNY      3  -6  66 NW8       30.14R WCI -10
HIBBING        SUNNY      4  -6  63 NW8       30.17S WCI  -9
EVELETH        SUNNY      3  -4  72 W6        30.17S WCI  -8
DULUTH HARBOR  SUNNY     14   0  52 NW3G10    30.22S
TWO HARBORS    SUNNY     12   0  57 NW5       30.14S WCI   4
SILVER BAY     SUNNY     10  -2  56 NW3       30.13S
GRAND MARAIS     N/A     12  -3  51 VRB5      30.16R WCI   4
G MARAIS ARPRT SUNNY      1  -8  66 NW8G20    30.01S WCI -12
$$
MNZ029>031-032-039>041-046>048-054>057-064-281900-
   West Central Minnesota

CITY           SKY/WX    TMP DP  RH WIND       PRES   REMARKS
FERGUS FALLS   MOSUNNY   12   0  57 N7        30.25S WCI   2
WHEATON        PTSUNNY    9   3  78 NW12      30.25S WCI  -6
MORRIS         PTSUNNY   19  14  79 N10       30.18S WCI   8
ALEXANDRIA     CLOUDY    18   9  68 N10       30.17S WCI   6
ELBOW LAKE     CLOUDY    14   8  76 N7        30.19S WCI   3
WADENA         SUNNY     10   0  61 N7        30.18S WCI   0
GLENWOOD       PTSUNNY   19  12  73 N9        30.16S WCI   9
APPLETON       CLOUDY    21  16  79 N13       30.19S WCI   9
BENSON         CLOUDY    21  16  79 N10       30.18S WCI  10
ORTONVILLE     CLOUDY    14   9  79 NW12      30.21S WCI   0
MADISON        CLOUDY    21  18  86 N12       30.20S WCI   9
WILLMAR        FAIR      25  18  74 N8        30.17S WCI  16
$$
MNZ033>034-036-042>043-049>051-058-059-281900-
   Central Minnesota

CITY           SKY/WX    TMP DP  RH WIND       PRES   REMARKS
ST CLOUD       CLOUDY    23   8  52 N12       30.17S WCI  12
6HR MIN TEMP:  15; 6HR MAX TEMP:  24;

SAUK CENTRE    CLOUDY    17   9  69 N7        30.17S WCI   8
PAYNESVILLE    CLOUDY    19  13  78 N9        30.16S WCI   8
AITKIN         SUNNY     16   0  48 N8        30.17S WCI   5
PINE RIVER     SUNNY      9   0  66 N7        30.22S WCI  -3
BRAINERD       SUNNY     13   1  59 N9        30.19R WCI   1
STAPLES        SUNNY     12   1  62 N8        30.18S WCI   1
LONG PRAIRIE   FAIR      18   9  68 N9        30.17S WCI   6
LITTLE FALLS   MOSUNNY   19   9  63 N6        30.18S WCI  11
LITCHFIELD     CLOUDY    23  21  93 NE6       30.16S WCI  16
BUFFALO        CLOUDY    24  17  74 N7        30.17F WCI  16
MAPLE LAKE     CLOUDY    24  20  86 N7        30.17S WCI  15
$$
MNZ037-044-045-052-053-281900-
   East Central Minnesota

CITY           SKY/WX    TMP DP  RH WIND       PRES   REMARKS
PRINCETON      CLOUDY    21  12  68 N8        30.17R WCI  12
MORA           SUNNY     19   9  63 NW10      30.19R WCI   8
CAMBRIDGE      CLOUDY    23  12  63 N5        30.15S WCI  17
RUSH CITY      PTSUNNY   21  10  61 NW8       30.17F WCI  12
MOOSE LAKE     SUNNY     14   0  52 NW10      30.16S WCI   1
HINCKLEY       FAIR      19  10  68 CALM      30.17S
CLOQUET        SUNNY      9  -2  61 W10       30.16S WCI  -6
MCGREGOR       SUNNY     12   0  57 N9        30.19S WCI   0
$$
MNZ071>073-080-081-089-090-097-098-281900-
   Southwest Minnesota

CITY           SKY/WX    TMP DP  RH WIND       PRES   REMARKS
MONTEVIDEO     PTSUNNY   23  18  80 NE8       30.19S WCI  14
GRANITE FALLS  CLOUDY    23  18  83 N6        30.19S WCI  15
CANBY          CLOUDY    21  17  86 NW12      30.19S WCI   9
MARSHALL       CLOUDY    21  16  79 N10       30.17S WCI  10
REDWOOD FALLS  MOSUNNY   22  16  78 VRB3      30.17F
OLIVIA         CLOUDY    21  19  93 NW6       30.16S FOG     WCI  14
PIPESTONE      LGT SNOW  19  18  93 E9        30.12R WCI   9
WINDOM         SUNNY     18  16  93 N7        30.14S WCI   8
WORTHINGTON    SUNNY     19 -26  12 N12       30.13F WCI   7
JACKSON        SUNNY     21  16  79 VRB8      30.12F WCI  12
TRACY          FOG       19  18  93 N7        30.16S VSB 3/4 WCI  10
SLAYTON        CLOUDY    19  17  93 N9        30.14S FOG     WCI   7
$$
MNZ065>067-074>077-082>085-091>093-281900-
   South Central Minnesota

CITY           SKY/WX    TMP DP  RH WIND       PRES   REMARKS
MANKATO        SUNNY     16   9  73 NW3       30.16F
NEW ULM        CLOUDY    16  14  93 NW3       30.17R FOG
ST JAMES       SUNNY     18  12  79 N7        30.17S WCI   8
FAIRMONT       SUNNY     19  12  73 N8        30.14F WCI   9
GLENCOE        CLOUDY    22  21  97 NW5       30.16S WCI  16
FARIBAULT      SUNNY     18  12  79 CALM      30.16S
OWATONNA       SUNNY     16   9  73 CALM      30.15S
ALBERT LEA     SUNNY     19  12  73 NW5       30.14S WCI  13
$$
MNZ078>079-086>088-094>096-281900-
   Southeast Minnesota

CITY           SKY/WX    TMP DP  RH WIND       PRES   REMARKS
ROCHESTER      SUNNY     15  11  83 W5        30.14S WCI   8
6HR MIN TEMP:   4; 6HR MAX TEMP:  15;

RED WING       CLOUDY    18  10  73 CALM      30.17F
STANTON        MOSUNNY   17  10  76 CALM      30.16S
DODGE CENTER   SUNNY     16  10  79 SW5       30.13S WCI   9
WINONA         SUNNY     21  14  73 CALM      30.18F
AUSTIN         SUNNY     16  10  79 CALM      30.13F
PRESTON        SUNNY     17  12  81 W3        30.14S
$$
ABBREVIATIONS USED IN REMARKS
   TC - TEMPERATURES IN CELSIUS
  WCI - WIND CHILL INDEX
   HX - HEAT INDEX
  VSB - VISIBILITY
$$


USA.gov is the U.S. government's official web portal to all federal, state and local government web resources and services.